• en France
  • Liste des pays
  • À 7 jours
  • Température de l'eau
  • Carte satellitaire
  • Carte météo
  • Widgets météo
  • user-avatar
    Se connecter

    Météo par heure à Boma

    Ce jour, 19 Octobre, Vendredi

    Heure Température Précipitation Vent Pression Humidité
    00:00 +19°C° 0.1 mm 0 m/s 700 mmHg 98%
    01:00 +19°C° 0.1 mm 0 m/s 699 mmHg 98%
    02:00 +19°C° 0 mm 0 m/s 699 mmHg 98%
    03:00 +19°C° 0 mm 0 m/s 699 mmHg 99%
    04:00 +19°C° 0 mm 0 m/s 699 mmHg 99%
    05:00 +19°C° 0 mm 0 m/s 699 mmHg 98%
    06:00 +20°C° 0 mm 0 m/s 700 mmHg 98%
    07:00 +20°C° 0 mm 0 m/s 700 mmHg 97%
    08:00 +23°C° 0 mm 0 m/s 701 mmHg 84%
    09:00 +26°C° 0 mm 0 m/s 701 mmHg 71%
    10:00 +30°C° 0 mm 0 m/s 702 mmHg 57%
    11:00 +32°C° 0 mm 1 m/s 701 mmHg 52%
    12:00 +33°C° 0 mm 1 m/s 700 mmHg 46%
    13:00 +34°C° 0 mm 1 m/s 700 mmHg 40%
    14:00 +34°C° 0 mm 1 m/s 699 mmHg 42%
    15:00 +33°C° 0 mm 1 m/s 698 mmHg 45%
    16:00 +33°C° 0 mm 1 m/s 698 mmHg 47%
    17:00 +30°C° 0 mm 1 m/s 698 mmHg 56%
    18:00 +28°C° 0 mm 1 m/s 698 mmHg 64%
    19:00 +26°C° 0 mm 1 m/s 698 mmHg 73%
    20:00 +23°C° 0 mm 0 m/s 698 mmHg 74%
    21:00 +22°C° 0 mm 0 m/s 699 mmHg 76%
    22:00 +22°C° 0 mm 0 m/s 699 mmHg 78%
    23:00 +21°C° 0 mm 0 m/s 699 mmHg 80%

    Demain, 20 Octobre, Samedi

    Heure Température Précipitation Vent Pression Humidité
    00:00 +21°C° 0 mm 0 m/s 699 mmHg 81%
    01:00 +23°C° 0 mm 1 m/s 699 mmHg 83%
    02:00 +22°C° 0 mm 1 m/s 699 mmHg 84%
    03:00 +22°C° 0 mm 1 m/s 698 mmHg 86%
    04:00 +20°C° 0 mm 0 m/s 698 mmHg 87%
    05:00 +20°C° 0 mm 0 m/s 699 mmHg 85%
    06:00 +21°C° 0 mm 0 m/s 699 mmHg 84%
    07:00 +21°C° 0 mm 0 m/s 700 mmHg 82%
    08:00 +24°C° 0 mm 0 m/s 700 mmHg 72%
    09:00 +27°C° 0 mm 0 m/s 701 mmHg 62%
    10:00 +30°C° 0 mm 0 m/s 701 mmHg 52%
    11:00 +33°C° 0 mm 1 m/s 701 mmHg 49%
    12:00 +33°C° 0 mm 1 m/s 700 mmHg 45%
    13:00 +35°C° 0 mm 2 m/s 699 mmHg 42%
    14:00 +34°C° 0 mm 2 m/s 699 mmHg 45%
    15:00 +33°C° 0 mm 1 m/s 699 mmHg 47%
    16:00 +32°C° 0 mm 1 m/s 698 mmHg 49%
    17:00 +30°C° 0 mm 1 m/s 698 mmHg 58%
    18:00 +28°C° 0 mm 1 m/s 699 mmHg 66%
    19:00 +26°C° 0 mm 1 m/s 699 mmHg 74%
    20:00 +25°C° 0 mm 1 m/s 699 mmHg 77%
    21:00 +23°C° 0 mm 0 m/s 699 mmHg 79%
    22:00 +22°C° 0 mm 0 m/s 700 mmHg 82%
    23:00 +22°C° 0 mm 0 m/s 699 mmHg 83%

    Après-demain, 21 Octobre, Dimanche

    Heure Température Précipitation Vent Pression Humidité
    00:00 +21°C° 0 mm 0 m/s 699 mmHg 84%
    01:00 +21°C° 0 mm 0 m/s 699 mmHg 86%
    02:00 +21°C° 0.2 mm 0 m/s 698 mmHg 88%
    03:00 +20°C° 0.2 mm 0 m/s 698 mmHg 90%
    04:00 +20°C° 0.2 mm 0 m/s 698 mmHg 92%
    05:00 +20°C° 0.1 mm 0 m/s 698 mmHg 92%
    06:00 +21°C° 0.1 mm 0 m/s 699 mmHg 91%
    07:00 +21°C° 0.1 mm 0 m/s 700 mmHg 91%
    08:00 +24°C° 0 mm 0 m/s 700 mmHg 79%
    09:00 +27°C° 0 mm 0 m/s 701 mmHg 68%
    10:00 +31°C° 0 mm 1 m/s 701 mmHg 57%
    11:00 +32°C° 0 mm 1 m/s 700 mmHg 51%
    12:00 +34°C° 0 mm 2 m/s 699 mmHg 45%
    13:00 +36°C° 0 mm 2 m/s 699 mmHg 40%
    14:00 +35°C° 0 mm 2 m/s 698 mmHg 42%
    15:00 +35°C° 0 mm 2 m/s 698 mmHg 45%
    16:00 +34°C° 0 mm 2 m/s 697 mmHg 48%
    17:00 +31°C° 0 mm 1 m/s 697 mmHg 56%
    18:00 +29°C° 0 mm 1 m/s 698 mmHg 63%
    19:00 +25°C° 0 mm 0 m/s 698 mmHg 71%
    20:00 +24°C° 1.1 mm 0 m/s 698 mmHg 79%
    21:00 +22°C° 1.1 mm 0 m/s 699 mmHg 86%
    22:00 +21°C° 1.1 mm 0 m/s 699 mmHg 93%
    23:00 +21°C° 0.7 mm 0 m/s 699 mmHg 94%

    22 Octobre, Lundi

    Heure Température Précipitation Vent Pression Humidité
    00:00 +21°C° 0.7 mm 0 m/s 699 mmHg 95%
    01:00 +21°C° 0.7 mm 0 m/s 698 mmHg 96%
    02:00 +21°C° 0.2 mm 0 m/s 698 mmHg 96%
    03:00 +20°C° 0.2 mm 0 m/s 698 mmHg 96%
    04:00 +20°C° 0.2 mm 0 m/s 698 mmHg 97%
    05:00 +20°C° 0 mm 0 m/s 699 mmHg 96%
    06:00 +21°C° 0 mm 0 m/s 699 mmHg 96%
    07:00 +21°C° 0 mm 0 m/s 700 mmHg 96%
    08:00 +23°C° 0.1 mm 0 m/s 700 mmHg 87%
    09:00 +25°C° 0.1 mm 0 m/s 700 mmHg 79%
    10:00 +27°C° 0.1 mm 0 m/s 700 mmHg 71%
    11:00 +28°C° 1.2 mm 0 m/s 700 mmHg 70%
    12:00 +30°C° 1.2 mm 1 m/s 699 mmHg 68%
    13:00 +30°C° 1.2 mm 1 m/s 698 mmHg 67%
    14:00 +30°C° 0.4 mm 1 m/s 698 mmHg 67%
    15:00 +30°C° 0.4 mm 1 m/s 698 mmHg 67%
    16:00 +30°C° 0.4 mm 1 m/s 698 mmHg 66%
    17:00 +28°C° 0.4 mm 1 m/s 698 mmHg 74%
    18:00 +24°C° 0.4 mm 0 m/s 698 mmHg 82%
    19:00 +22°C° 0.4 mm 0 m/s 699 mmHg 89%
    20:00 +22°C° 0.2 mm 0 m/s 699 mmHg 91%
    21:00 +22°C° 0.2 mm 0 m/s 700 mmHg 92%
    22:00 +21°C° 0.2 mm 0 m/s 700 mmHg 94%
    23:00 +21°C° 0.4 mm 0 m/s 700 mmHg 95%

    23 Octobre, Mardi

    Heure Température Précipitation Vent Pression Humidité
    00:00 +21°C° 0.4 mm 0 m/s 699 mmHg 96%
    01:00 +20°C° 0.4 mm 0 m/s 699 mmHg 97%
    02:00 +20°C° 0 mm 0 m/s 699 mmHg 97%
    03:00 +20°C° 0 mm 0 m/s 698 mmHg 97%
    04:00 +20°C° 0 mm 0 m/s 698 mmHg 97%
    05:00 +20°C° 0 mm 0 m/s 699 mmHg 97%
    06:00 +20°C° 0 mm 0 m/s 700 mmHg 96%
    07:00 +21°C° 0 mm 0 m/s 700 mmHg 95%
    08:00 +23°C° 0 mm 0 m/s 701 mmHg 85%
    09:00 +26°C° 0 mm 0 m/s 701 mmHg 74%
    10:00 +29°C° 0 mm 0 m/s 702 mmHg 63%
    11:00 +30°C° 0 mm 0 m/s 701 mmHg 56%
    12:00 +33°C° 0 mm 1 m/s 700 mmHg 50%
    13:00 +34°C° 0 mm 1 m/s 699 mmHg 44%
    14:00 +34°C° 0 mm 1 m/s 699 mmHg 47%
    15:00 +33°C° 0 mm 1 m/s 698 mmHg 50%
    16:00 +32°C° 0 mm 1 m/s 698 mmHg 54%
    17:00 +30°C° 1.3 mm 1 m/s 698 mmHg 65%
    18:00 +27°C° 1.3 mm 1 m/s 699 mmHg 77%
    19:00 +25°C° 1.3 mm 1 m/s 699 mmHg 89%
    20:00 +24°C° 2.8 mm 1 m/s 699 mmHg 92%
    21:00 +24°C° 2.8 mm 1 m/s 700 mmHg 94%
    22:00 +23°C° 2.8 mm 1 m/s 700 mmHg 97%
    23:00 +23°C° 0.2 mm 1 m/s 700 mmHg 97%

    24 Octobre, Mercredi

    Heure Température Précipitation Vent Pression Humidité
    00:00 +23°C° 0.2 mm 1 m/s 700 mmHg 97%
    01:00 +21°C° 0.2 mm 0 m/s 700 mmHg 98%
    02:00 +20°C° 0.2 mm 0 m/s 699 mmHg 98%
    03:00 +20°C° 0.2 mm 0 m/s 699 mmHg 98%
    04:00 +20°C° 0.2 mm 0 m/s 699 mmHg 98%
    05:00 +20°C° 0 mm 0 m/s 700 mmHg 97%
    06:00 +21°C° 0 mm 0 m/s 700 mmHg 97%
    07:00 +21°C° 0 mm 0 m/s 701 mmHg 96%
    08:00 +23°C° 0.1 mm 0 m/s 701 mmHg 89%
    09:00 +26°C° 0.1 mm 1 m/s 701 mmHg 81%
    10:00 +28°C° 0.1 mm 1 m/s 702 mmHg 73%
    11:00 +30°C° 0 mm 1 m/s 701 mmHg 65%
    12:00 +30°C° 0 mm 0 m/s 701 mmHg 57%
    13:00 +32°C° 0 mm 0 m/s 700 mmHg 48%
    14:00 +31°C° 0 mm 0 m/s 699 mmHg 50%
    15:00 +31°C° 0 mm 0 m/s 699 mmHg 52%
    16:00 +30°C° 0 mm 0 m/s 698 mmHg 54%
    17:00 +28°C° 0.1 mm 0 m/s 699 mmHg 62%
    18:00 +26°C° 0.1 mm 0 m/s 699 mmHg 70%
    19:00 +23°C° 0.1 mm 0 m/s 699 mmHg 79%
    20:00 +25°C° 0.5 mm 1 m/s 700 mmHg 84%
    21:00 +24°C° 0.5 mm 1 m/s 700 mmHg 89%
    22:00 +23°C° 0.5 mm 1 m/s 700 mmHg 95%
    23:00 +23°C° 0.1 mm 1 m/s 700 mmHg 96%
    Voir plus